IZ3TCG-13 Weather Reports


Display with metric or nautical units.
time (UTC)temp
F
wind
direction
speed
MPH
gust
MPH
rain 1hr
in
rain 24hr
in
rain mn
in
humidity
%
barometer
mb
20260904131603 90 90 4.0 11.0 0.00 0.00 0.00 64 1011.7
20260904131203 90 87 4.0 8.0 0.00 0.00 0.00 62 1011.5
20260904130803 91 78 4.0 9.0 0.00 0.00 0.00 62 1011.6
20260904130403 91 82 2.0 9.0 0.00 0.00 0.00 60 1011.6
20260904130003 91 86 2.0 7.0 0.00 0.00 0.00 59 1011.9
20260904125603 91 93 3.0 7.0 0.00 0.00 0.00 60 1011.6
20260904125203 91 100 2.0 7.0 0.00 0.00 0.00 60 1011.9
20260904124804 92 91 3.0 6.0 0.00 0.00 0.00 58 1011.8
20260904124403 92 86 2.0 6.0 0.00 0.00 0.00 59 1011.9
20260904124003 94 114 2.0 4.0 0.00 0.00 0.00 53 1012.0
20260904123814 94 131 1.0 4.0 0.00 0.00 0.00 45 1012.0
20260904123203 94 155 2.0 6.0 0.00 0.00 0.00 49 1012.3
20260904123017 94 157 1.0 6.0 0.00 0.00 0.00 48 1011.9
20260904122403 95 144 2.0 4.0 0.00 0.00 0.00 49 1012.1
20260904122003 94 119 1.0 4.0 0.00 0.00 0.00 47 1011.9
20260904121603 93 118 3.0 4.0 0.00 0.00 0.00 47 1012.2
20260904121203 94 141 2.0 4.0 0.00 0.00 0.00 49 1012.1
20260904120803 94 186 1.0 4.0 0.00 0.00 0.00 46 1012.0
20260904120403 93 174 1.0 4.0 0.00 0.00 0.00 51 1012.2
20260904120003 94 158 2.0 4.0 0.00 0.00 0.00 49 1012.1
20260904115603 93 175 2.0 4.0 0.00 0.00 0.00 48 1012.1
20260904115203 92 169 1.0 6.0 0.00 0.00 0.00 50 1012.3
20260904114803 92 168 2.0 6.0 0.00 0.00 0.00 49 1012.1
20260904114615 93 156 2.0 6.0 0.00 0.00 0.00 49 1012.2
20260904114003 92 166 4.0 7.0 0.00 0.00 0.00 50 1012.2
20260904113603 92 114 1.0 7.0 0.00 0.00 0.00 53 1012.2
20260904113203 91 96 3.0 7.0 0.00 0.00 0.00 54 1012.4
20260904112803 91 93 3.0 7.0 0.00 0.00 0.00 54 1012.3
20260904112403 92 94 2.0 4.0 0.00 0.00 0.00 55 1012.4
20260904112003 92 169 1.0 4.0 0.00 0.00 0.00 56 1012.6
20260904111816 92 152 2.0 4.0 0.00 0.00 0.00 54 1012.5
20260904111415 92 214 1.0 4.0 0.00 0.00 0.00 54 1012.6
20260904110803 93 223 2.0 4.0 0.00 0.00 0.00 55 1012.9
20260904110403 93 180 1.0 6.0 0.00 0.00 0.00 52 1012.6
20260904110004 93 82 2.0 6.0 0.00 0.00 0.00 52 1012.5
20260904105603 92 80 1.0 7.0 0.00 0.00 0.00 55 1012.7
20260904105413 91 84 3.0 7.0 0.00 0.00 0.00 53 1012.5
20260904104803 91 88 2.0 4.0 0.00 0.00 0.00 56 1012.6
20260904104403 91 92 2.0 4.0 0.00 0.00 0.00 56 1012.8
20260904104003 92 183 2.0 4.0 0.00 0.00 0.00 53 1012.7
20260904103604 91 178 1.0 4.0 0.00 0.00 0.00 52 1012.8
20260904103203 92 129 2.0 4.0 0.00 0.00 0.00 55 1012.8
20260904102803 92 95 2.0 4.0 0.00 0.00 0.00 54 1012.9
20260904102403 90 88 2.0 4.0 0.00 0.00 0.00 56 1013.0
20260904102003 91 100 2.0 4.0 0.00 0.00 0.00 56 1013.1
20260904101603 90 178 1.0 4.0 0.00 0.00 0.00 56 1013.0
20260904101203 90 141 2.0 4.0 0.00 0.00 0.00 54 1012.8
20260904100803 91 133 1.0 4.0 0.00 0.00 0.00 54 1013.0
20260904100403 90 144 1.0 4.0 0.00 0.00 0.00 55 1012.9
20260904095603 89 119 2.0 4.0 0.00 0.00 0.00 56 1013.0
20260904095203 89 91 2.0 4.0 0.00 0.00 0.00 56 1013.0
20260904094803 89 75 2.0 4.0 0.00 0.00 0.00 55 1013.2
20260904094403 89 81 2.0 4.0 0.00 0.00 0.00 56 1013.2
20260904094003 89 100 1.0 6.0 0.00 0.00 0.00 57 1013.1
20260904093817 88 94 1.0 6.0 0.00 0.00 0.00 56 1013.2
20260904093203 88 86 2.0 4.0 0.00 0.00 0.00 56 1013.4
20260904092803 88 104 2.0 6.0 0.00 0.00 0.00 57 1013.3
20260904092403 88 94 2.0 6.0 0.00 0.00 0.00 57 1013.4
20260904092214 88 102 1.0 6.0 0.00 0.00 0.00 58 1013.3
20260904091603 89 108 1.0 2.0 0.00 0.00 0.00 58 1013.4
20260904091203 89 119 2.0 2.0 0.00 0.00 0.00 56 1013.4
20260904090804 88 123 2.0 2.0 0.00 0.00 0.00 59 1013.5
20260904090403 88 108 1.0 4.0 0.00 0.00 0.00 60 1013.1
20260904090003 87 123 0.0 4.0 0.00 0.00 0.00 60 1013.0
20260904085603 87 117 2.0 4.0 0.00 0.00 0.00 59 1013.3
20260904085203 86 109 2.0 4.0 0.00 0.00 0.00 60 1013.4
20260904084803 86 94 2.0 4.0 0.00 0.00 0.00 60 1013.2
20260904084614 86 87 2.0 4.0 0.00 0.00 0.00 59 1013.2
20260904084213 86 85 2.0 4.0 0.00 0.00 0.00 61 1013.3
20260904083603 87 102 2.0 4.0 0.00 0.00 0.00 57 1013.6
20260904083203 87 95 0.0 4.0 0.00 0.00 0.00 60 1013.3
20260904082803 86 67 0.0 2.0 0.00 0.00 0.00 57 1013.5
20260904082403 86 29 2.0 4.0 0.00 0.00 0.00 59 1013.4
20260904082003 84 28 0.0 4.0 0.00 0.00 0.00 60 1013.4
20260904081603 83 21 2.0 4.0 0.00 0.00 0.00 63 1013.1
20260904081203 86 11 2.0 4.0 0.00 0.00 0.00 61 1013.2
20260904080803 86 356 1.0 2.0 0.00 0.00 0.00 58 1013.2
20260904080403 85 7 0.0 2.0 0.00 0.00 0.00 60 1013.6
20260904080003 85 29 1.0 2.0 0.00 0.00 0.00 60 1013.4
20260904075603 84 30 1.0 2.0 0.00 0.00 0.00 63 1013.3
20260904075203 83 13 1.0 4.0 0.00 0.00 0.00 61 1013.1
20260904074803 82 20 1.0 4.0 0.00 0.00 0.00 62 1013.2
20260904074403 81 23 2.0 4.0 0.00 0.00 0.00 63 1013.1
20260904074003 82 16 2.0 4.0 0.00 0.00 0.00 63 1013.3
20260904073603 82 352 1.0 2.0 0.00 0.00 0.00 62 1013.3
20260904073204 82 336 1.0 2.0 0.00 0.00 0.00 63 1013.2
20260904072803 81 330 0.0 4.0 0.00 0.00 0.00 64 1013.0
20260904072403 81 317 1.0 4.0 0.00 0.00 0.00 65 1013.1
20260904072003 81 345 2.0 2.0 0.00 0.00 0.00 64 1013.1
20260904071603 80 9 0.0 2.0 0.00 0.00 0.00 66 1013.3
20260904071203 81 15 1.0 2.0 0.00 0.00 0.00 65 1013.2
20260904070803 80 10 0.0 2.0 0.00 0.00 0.00 66 1013.2
20260904070403 79 5 1.0 4.0 0.00 0.00 0.00 67 1013.3
20260904070003 79 13 1.0 4.0 0.00 0.00 0.00 67 1013.2
20260904065603 78 10 1.0 4.0 0.00 0.00 0.00 68 1012.9
20260904065203 78 13 2.0 4.0 0.00 0.00 0.00 69 1013.3
20260904064803 78 342 1.0 2.0 0.00 0.00 0.00 68 1013.2
20260904064403 78 320 1.0 2.0 0.00 0.00 0.00 69 1013.4
20260904064003 77 300 0.0 2.0 0.00 0.00 0.00 72 1013.2
20260904063603 76 311 1.0 2.0 0.00 0.00 0.00 73 1013.1
20260904063203 76 311 1.0 2.0 0.00 0.00 0.00 74 1013.0
20260904062803 75 299 0.0 4.0 0.00 0.00 0.00 74 1013.0
20260904062404 75 285 1.0 4.0 0.00 0.00 0.00 76 1012.9
20260904062004 75 268 1.0 4.0 0.00 0.00 0.00 76 1013.0
20260904061603 74 266 1.0 4.0 0.00 0.00 0.00 76 1013.0
20260904061203 74 270 0.0 2.0 0.00 0.00 0.00 77 1012.9
20260904060803 73 270 0.0 2.0 0.00 0.00 0.00 78 1013.2
20260904060403 73 267 1.0 2.0 0.00 0.00 0.00 79 1012.9
20260904060003 72 281 0.0 4.0 0.00 0.00 0.00 81 1013.1
20260904055603 72 282 1.0 4.0 0.00 0.00 0.00 81 1012.9
20260904055203 72 291 0.0 4.0 0.00 0.00 0.00 81 1013.0
20260904055016 72 292 2.0 4.0 0.00 0.00 0.00 81 1013.0
20260904054403 71 311 2.0 4.0 0.00 0.00 0.00 82 1013.0
20260904054003 71 313 0.0 2.0 0.00 0.00 0.00 84 1013.0
20260904053603 71 291 0.0 2.0 0.00 0.00 0.00 84 1012.9
20260904053203 70 289 0.0 2.0 0.00 0.00 0.00 85 1013.1
20260904052803 69 287 1.0 2.0 0.00 0.00 0.00 87 1012.9
20260904052403 69 0 0.0 0.0 0.00 0.00 0.00 87 1013.0
20260904052003 69 0 0.0 0.0 0.00 0.00 0.00 88 1013.1
20260904051603 69 270 0.0 2.0 0.00 0.00 0.00 88 1012.8
20260904051203 68 270 0.0 2.0 0.00 0.00 0.00 88 1012.9
20260904050803 68 270 0.0 2.0 0.00 0.00 0.00 89 1012.6
20260904050403 67 0 0.0 0.0 0.00 0.00 0.00 91 1012.8
20260904050214 67 0 0.0 0.0 0.00 0.00 0.00 91 1012.8
20260904045603 67 0 0.0 0.0 0.00 0.00 0.00 90 1012.7
20260904045203 67 0 0.0 0.0 0.00 0.00 0.00 90 1012.5
20260904045017 67 0 0.0 0.0 0.00 0.00 0.00 90 1012.7
20260904044403 67 0 0.0 0.0 0.00 0.00 0.00 89 1012.6
20260904044003 67 0 0.0 0.0 0.00 0.00 0.00 89 1012.6
20260904043603 67 0 0.0 0.0 0.00 0.00 0.00 89 1012.4
20260904043203 68 274 0.0 2.0 0.00 0.00 0.00 88 1012.4
20260904042803 68 279 0.0 2.0 0.00 0.00 0.00 88 1012.8
20260904042403 68 281 0.0 2.0 0.00 0.00 0.00 87 1012.5
20260904042003 68 0 0.0 0.0 0.00 0.00 0.00 87 1012.5
20260904041603 68 0 0.0 0.0 0.00 0.00 0.00 86 1012.4
20260904041203 68 0 0.0 0.0 0.00 0.00 0.00 87 1012.5
20260904040803 68 0 0.0 0.0 0.00 0.00 0.00 87 1012.5
20260904040615 68 0 0.0 0.0 0.00 0.00 0.00 87 1012.4
20260904040215 68 0 0.0 0.0 0.00 0.00 0.00 88 1012.5
20260904035603 68 0 0.0 0.0 0.00 0.00 0.00 88 1012.5
20260904035203 68 0 0.0 0.0 0.00 0.00 0.00 88 1012.5
20260904034803 68 0 0.0 0.0 0.00 0.00 0.00 87 1012.5
20260904034403 68 0 0.0 0.0 0.00 0.00 0.00 87 1012.5
20260904034003 68 0 0.0 0.0 0.00 0.00 0.00 87 1012.5
20260904033603 68 0 0.0 0.0 0.00 0.00 0.00 86 1012.5
20260904033203 69 0 0.0 0.0 0.00 0.00 0.00 86 1012.3
20260904032803 69 0 0.0 0.0 0.00 0.00 0.00 85 1012.5
20260904032403 70 0 0.0 0.0 0.00 0.00 0.00 84 1012.5
20260904032213 70 0 0.0 0.0 0.00 0.00 0.00 84 1012.6
20260904031603 70 0 0.0 0.0 0.00 0.00 0.00 83 1012.5
20260904031203 69 0 0.0 0.0 0.00 0.00 0.00 84 1012.5
20260904030803 69 0 0.0 0.0 0.00 0.00 0.00 85 1012.3
20260904030616 69 0 0.0 0.0 0.00 0.00 0.00 85 1012.5
20260904030004 70 0 0.0 0.0 0.00 0.00 0.00 83 1012.4
20260904025604 70 0 0.0 0.0 0.00 0.00 0.00 83 1012.4
20260904025203 70 0 0.0 0.0 0.00 0.00 0.00 82 1012.4
20260904025013 70 0 0.0 0.0 0.00 0.00 0.00 82 1012.4
20260904024403 70 0 0.0 0.0 0.00 0.00 0.00 82 1012.3
20260904024003 71 0 0.0 0.0 0.00 0.00 0.00 81 1012.3
20260904023603 71 0 0.0 0.0 0.00 0.00 0.00 81 1012.3
20260904023203 71 0 0.0 0.0 0.00 0.00 0.00 80 1012.4
20260904022803 71 0 0.0 0.0 0.00 0.00 0.00 80 1012.4
20260904022403 70 0 0.0 0.0 0.00 0.00 0.00 80 1012.2
20260904022003 70 0 0.0 0.0 0.00 0.00 0.00 82 1012.4
20260904021603 70 0 0.0 0.0 0.00 0.00 0.00 82 1012.5
20260904021203 71 0 0.0 0.0 0.00 0.00 0.00 80 1012.5
20260904020803 71 0 0.0 0.0 0.00 0.00 0.00 81 1012.5
20260904020403 71 0 0.0 0.0 0.00 0.00 0.00 80 1012.6
20260904020003 71 0 0.0 0.0 0.00 0.00 0.00 77 1012.6
20260904015603 72 0 0.0 0.0 0.00 0.00 0.00 77 1012.3
20260904015414 72 67 0.0 2.0 0.00 0.00 0.00 77 1012.4
20260904014803 72 78 0.0 2.0 0.00 0.00 0.00 76 1012.4
20260904014403 72 90 0.0 2.0 0.00 0.00 0.00 77 1012.5
20260904014003 72 0 0.0 0.0 0.00 0.00 0.00 78 1012.1
20260904013603 72 0 0.0 0.0 0.00 0.00 0.00 79 1012.4
20260904013203 71 0 0.0 0.0 0.00 0.00 0.00 80 1012.0
20260904012803 71 0 0.0 0.0 0.00 0.00 0.00 82 1012.2
20260904012403 71 0 0.0 0.0 0.00 0.00 0.00 84 1012.3
20260904012003 71 0 0.0 0.0 0.00 0.00 0.00 84 1012.0
20260904011603 71 0 0.0 0.0 0.00 0.00 0.00 84 1012.3
20260904011203 71 0 0.0 0.0 0.00 0.00 0.00 84 1012.4
20260904010803 71 0 0.0 0.0 0.00 0.00 0.00 83 1012.4
20260904010617 71 0 0.0 0.0 0.00 0.00 0.00 83 1012.3
20260904010216 71 0 0.0 0.0 0.00 0.00 0.00 83 1012.5
20260904005603 71 0 0.0 0.0 0.00 0.00 0.00 84 1012.5
20260904005415 70 0 0.0 0.0 0.00 0.00 0.00 84 1012.5
20260904004803 70 0 0.0 0.0 0.00 0.00 0.00 84 1012.4
20260904004403 70 0 0.0 0.0 0.00 0.00 0.00 85 1012.6
20260904004004 70 0 0.0 0.0 0.00 0.00 0.00 85 1012.3
20260904003813 70 0 0.0 0.0 0.00 0.00 0.00 85 1012.1
20260904003417 70 0 0.0 0.0 0.00 0.00 0.00 86 1012.5
20260904002803 70 0 0.0 0.0 0.00 0.00 0.00 87 1012.4
20260904002616 70 0 0.0 0.0 0.00 0.00 0.00 87 1012.3
20260904002003 70 0 0.0 0.0 0.00 0.00 0.00 86 1012.6
20260904001603 70 0 0.0 0.0 0.00 0.00 0.00 85 1012.5
20260904001414 70 0 0.0 0.0 0.00 0.00 0.00 85 1012.7
20260904000803 70 0 0.0 0.0 0.00 0.00 0.00 85 1012.5
20260904000403 70 0 0.0 0.0 0.00 0.00 0.00 85 1012.5
20260904000004 70 0 0.0 0.0 0.00 0.00 0.00 85 1012.6
20260903235816 70 0 0.0 0.0 0.00 0.00 0.00 85 1012.4
20260903235203 70 0 0.0 0.0 0.00 0.00 0.00 85 1012.3
20260903234803 70 0 0.0 0.0 0.00 0.00 0.00 85 1012.6
20260903234614 70 0 0.0 0.0 0.00 0.00 0.00 85 1012.6
20260903234003 71 0 0.0 0.0 0.00 0.00 0.00 85 1012.5
20260903233603 71 0 0.0 0.0 0.00 0.00 0.00 84 1012.5
20260903233203 71 0 0.0 0.0 0.00 0.00 0.00 83 1012.7
20260903232803 71 0 0.0 0.0 0.00 0.00 0.00 83 1012.7
20260903232403 71 0 0.0 0.0 0.00 0.00 0.00 83 1012.8
20260903232003 71 0 0.0 0.0 0.00 0.00 0.00 82 1012.6
20260903231604 71 0 0.0 0.0 0.00 0.00 0.00 82 1012.6
20260903231203 72 0 0.0 0.0 0.00 0.00 0.00 81 1012.7
20260903230803 72 0 0.0 0.0 0.00 0.00 0.00 80 1012.5
20260903230403 72 0 0.0 0.0 0.00 0.00 0.00 80 1012.7
20260903230004 73 0 0.0 0.0 0.00 0.00 0.00 78 1012.8
20260903225603 73 0 0.0 0.0 0.00 0.00 0.00 77 1012.8
20260903225416 73 0 0.0 0.0 0.00 0.00 0.00 77 1012.9
20260903224803 74 0 0.0 0.0 0.00 0.00 0.00 76 1012.8
20260903224403 74 0 0.0 0.0 0.00 0.00 0.00 75 1012.7
20260903224003 74 0 0.0 0.0 0.00 0.00 0.00 75 1012.5
20260903223603 74 0 0.0 0.0 0.00 0.00 0.00 74 1012.6
20260903223203 75 0 0.0 0.0 0.00 0.00 0.00 73 1012.6
20260903222804 75 0 0.0 0.0 0.00 0.00 0.00 73 1012.4
20260903222403 75 0 0.0 0.0 0.00 0.00 0.00 72 1012.5
20260903222216 74 0 0.0 0.0 0.00 0.00 0.00 73 1012.7
20260903221816 74 0 0.0 0.0 0.00 0.00 0.00 74 1012.5
20260903221203 74 0 0.0 0.0 0.00 0.00 0.00 74 1012.6
20260903221015 74 0 0.0 0.0 0.00 0.00 0.00 74 1012.5
20260903220403 74 90 0.0 2.0 0.00 0.00 0.00 74 1012.4
20260903220007 74 90 0.0 2.0 0.00 0.00 0.00 73 1012.3
20260903215603 73 0 0.0 0.0 0.00 0.00 0.00 74 1012.3
20260903215203 72 0 0.0 0.0 0.00 0.00 0.00 76 1012.0
20260903214803 72 0 0.0 0.0 0.00 0.00 0.00 77 1012.3
20260903214403 72 0 0.0 0.0 0.00 0.00 0.00 76 1012.2
20260903214003 72 0 0.0 0.0 0.00 0.00 0.00 75 1011.9
20260903213603 72 0 0.0 0.0 0.00 0.00 0.00 76 1012.3
20260903213203 72 0 0.0 0.0 0.00 0.00 0.00 76 1012.1
20260903212803 72 0 0.0 0.0 0.00 0.00 0.00 75 1012.1
20260903212403 73 0 0.0 0.0 0.00 0.00 0.00 75 1011.9
20260903212003 73 0 0.0 0.0 0.00 0.00 0.00 73 1011.9
20260903211603 73 0 0.0 0.0 0.00 0.00 0.00 73 1011.9
20260903211203 73 0 0.0 0.0 0.00 0.00 0.00 73 1012.0
20260903210803 72 0 0.0 0.0 0.00 0.00 0.00 73 1011.7
20260903210403 72 0 0.0 0.0 0.00 0.00 0.00 73 1012.1
20260903210214 72 0 0.0 0.0 0.00 0.00 0.00 74 1012.1
20260903205603 73 0 0.0 0.0 0.00 0.00 0.00 75 1012.0
20260903205413 73 0 0.0 0.0 0.00 0.00 0.00 75 1011.7
20260903204803 74 0 0.0 0.0 0.00 0.00 0.00 74 1012.2
20260903204403 74 0 0.0 0.0 0.00 0.00 0.00 73 1012.0
20260903204003 74 0 0.0 0.0 0.00 0.00 0.00 71 1012.1
20260903203603 74 0 0.0 0.0 0.00 0.00 0.00 71 1012.3
20260903203414 74 0 0.0 0.0 0.00 0.00 0.00 70 1012.2
20260903203014 74 0 0.0 0.0 0.00 0.00 0.00 70 1012.0
20260903202403 75 0 0.0 0.0 0.00 0.00 0.00 69 1012.0
20260903202003 75 0 0.0 0.0 0.00 0.00 0.00 68 1012.1
20260903201603 75 0 0.0 0.0 0.00 0.00 0.00 68 1011.9
20260903201416 75 0 0.0 0.0 0.00 0.00 0.00 68 1011.8
20260903201016 75 0 0.0 0.0 0.00 0.00 0.00 68 1011.9
20260903200403 76 0 0.0 0.0 0.00 0.00 0.00 67 1011.8
20260903200003 76 0 0.0 0.0 0.00 0.00 0.00 67 1011.9
20260903195814 76 0 0.0 0.0 0.00 0.00 0.00 66 1012.1
20260903195203 77 0 0.0 0.0 0.00 0.00 0.00 64 1011.9
20260903194803 77 0 0.0 0.0 0.00 0.00 0.00 62 1011.9
20260903194403 78 0 0.0 0.0 0.00 0.00 0.00 60 1011.7
20260903194003 78 0 0.0 0.0 0.00 0.00 0.00 60 1011.7
20260903193603 77 0 0.0 0.0 0.00 0.00 0.00 60 1011.8
20260903193203 77 0 0.0 0.0 0.00 0.00 0.00 61 1011.6
20260903193014 77 0 0.0 0.0 0.00 0.00 0.00 62 1011.6
20260903192403 77 0 0.0 0.0 0.00 0.00 0.00 60 1011.8
20260903192003 78 0 0.0 0.0 0.00 0.00 0.00 61 1011.5
20260903191603 78 0 0.0 0.0 0.00 0.00 0.00 59 1011.8
20260903191203 79 0 0.0 0.0 0.00 0.00 0.00 58 1011.5
20260903191016 79 0 0.0 0.0 0.00 0.00 0.00 59 1011.6
20260903190616 79 0 0.0 0.0 0.00 0.00 0.00 57 1011.5
20260903190004 79 90 0.0 2.0 0.00 0.00 0.00 56 1011.6
20260903185604 80 90 0.0 2.0 0.00 0.00 0.00 56 1011.6
20260903185203 80 90 0.0 2.0 0.00 0.00 0.00 56 1011.4
20260903184803 80 90 0.0 2.0 0.00 0.00 0.00 55 1011.5
20260903184403 80 92 0.0 4.0 0.00 0.00 0.00 56 1011.3
20260903184003 80 89 2.0 4.0 0.00 0.00 0.00 56 1011.5
20260903183816 81 87 0.0 4.0 0.00 0.00 0.00 56 1011.4
20260903183203 81 77 1.0 4.0 0.00 0.00 0.00 55 1011.3
20260903182803 81 74 2.0 4.0 0.00 0.00 0.00 54 1011.5
20260903182403 80 79 0.0 2.0 0.00 0.00 0.00 57 1011.3
20260903182003 80 86 1.0 4.0 0.00 0.00 0.00 57 1011.0
20260903181603 81 86 1.0 4.0 0.00 0.00 0.00 57 1011.3
20260903181203 81 87 1.0 4.0 0.00 0.00 0.00 56 1011.3
20260903180803 81 92 2.0 4.0 0.00 0.00 0.00 56 1011.2
20260903180403 81 88 2.0 4.0 0.00 0.00 0.00 57 1011.1
20260903180216 81 84 1.0 4.0 0.00 0.00 0.00 56 1011.1
20260903175815 81 86 1.0 4.0 0.00 0.00 0.00 57 1011.2
20260903175203 82 93 2.0 4.0 0.00 0.00 0.00 56 1011.1
20260903174803 82 87 2.0 4.0 0.00 0.00 0.00 57 1010.9
20260903174403 82 85 1.0 2.0 0.00 0.00 0.00 56 1011.2
20260903174003 82 80 1.0 4.0 0.00 0.00 0.00 56 1011.1
20260903173603 82 86 0.0 4.0 0.00 0.00 0.00 57 1011.1
20260903173203 82 93 1.0 2.0 0.00 0.00 0.00 56 1011.1
20260903172803 83 94 2.0 4.0 0.00 0.00 0.00 56 1011.1
20260903172403 83 98 1.0 4.0 0.00 0.00 0.00 56 1011.0
20260903172003 83 94 2.0 4.0 0.00 0.00 0.00 55 1011.1
20260903171603 83 89 2.0 4.0 0.00 0.00 0.00 55 1011.1
20260903171203 84 85 2.0 4.0 0.00 0.00 0.00 54 1011.1
20260903170803 84 84 1.0 4.0 0.00 0.00 0.00 54 1011.3
20260903170403 84 85 2.0 4.0 0.00 0.00 0.00 52 1011.3
20260903170003 84 90 2.0 4.0 0.00 0.00 0.00 52 1011.2
20260903165603 84 97 1.0 4.0 0.00 0.00 0.00 52 1011.2
20260903165203 85 90 1.0 2.0 0.00 0.00 0.00 52 1010.9
20260903165015 85 86 0.0 4.0 0.00 0.00 0.00 53 1011.2
20260903164404 86 88 0.0 4.0 0.00 0.00 0.00 50 1011.3
20260903164213 86 90 1.0 4.0 0.00 0.00 0.00 49 1011.1
20260903163603 86 85 1.0 4.0 0.00 0.00 0.00 49 1011.3
20260903163203 86 86 4.0 4.0 0.00 0.00 0.00 47 1011.2
20260903162804 86 93 1.0 4.0 0.00 0.00 0.00 49 1011.2
20260903162403 86 102 1.0 4.0 0.00 0.00 0.00 50 1011.3
20260903162003 86 97 3.0 4.0 0.00 0.00 0.00 47 1011.2
20260903161603 86 93 2.0 7.0 0.00 0.00 0.00 47 1011.2
20260903161203 86 88 2.0 7.0 0.00 0.00 0.00 47 1010.9
20260903161013 86 90 2.0 7.0 0.00 0.00 0.00 48 1011.1
20260903160403 88 89 4.0 7.0 0.00 0.00 0.00 46 1011.2
20260903160003 88 98 2.0 6.0 0.00 0.00 0.00 47 1010.9
20260903155603 88 90 1.0 6.0 0.00 0.00 0.00 46 1011.0
20260903155203 88 89 2.0 6.0 0.00 0.00 0.00 47 1011.0
20260903154803 89 76 1.0 6.0 0.00 0.00 0.00 46 1011.0
20260903154403 89 77 1.0 8.0 0.00 0.00 0.00 46 1010.8
20260903154214 89 75 1.0 8.0 0.00 0.00 0.00 46 1011.1
20260903153603 89 75 4.0 7.0 0.00 0.00 0.00 44 1010.8
20260903153203 89 91 2.0 11.0 0.00 0.00 0.00 49 1010.9
20260903152803 89 94 2.0 11.0 0.00 0.00 0.00 44 1010.8
20260903152403 89 85 2.0 11.0 0.00 0.00 0.00 46 1010.9
20260903152003 90 92 3.0 4.0 0.00 0.00 0.00 46 1011.0
20260903151603 89 78 2.0 8.0 0.00 0.00 0.00 47 1010.8
20260903151203 88 76 1.0 8.0 0.00 0.00 0.00 48 1010.6
20260903151014 88 76 2.0 8.0 0.00 0.00 0.00 47 1010.6
20260903150403 89 87 3.0 7.0 0.00 0.00 0.00 46 1010.7
20260903150004 89 91 2.0 6.0 0.00 0.00 0.00 49 1010.9
20260903145603 90 99 2.0 6.0 0.00 0.00 0.00 46 1011.0
20260903145203 89 90 2.0 7.0 0.00 0.00 0.00 47 1011.1
20260903144803 89 78 2.0 7.0 0.00 0.00 0.00 47 1011.2
20260903144403 89 85 4.0 7.0 0.00 0.00 0.00 47 1011.2
20260903144214 90 93 4.0 7.0 0.00 0.00 0.00 45 1011.4
20260903143604 90 93 3.0 7.0 0.00 0.00 0.00 49 1011.6
20260903143204 90 91 2.0 4.0 0.00 0.00 0.00 45 1011.5
20260903142804 90 106 1.0 4.0 0.00 0.00 0.00 47 1011.5
20260903142403 89 103 2.0 6.0 0.00 0.00 0.00 48 1011.3
20260903142003 89 105 2.0 6.0 0.00 0.00 0.00 46 1011.3
20260903141603 90 126 2.0 4.0 0.00 0.00 0.00 47 1011.6
20260903141203 91 152 1.0 4.0 0.00 0.00 0.00 53 1011.7
20260903140803 91 155 0.0 4.0 0.00 0.00 0.00 44 1011.6
20260903140403 92 172 2.0 6.0 0.00 0.00 0.00 47 1011.6
20260903140213 92 165 1.0 6.0 0.00 0.00 0.00 45 1011.7
20260903135603 93 173 2.0 4.0 0.00 0.00 0.00 44 1011.6
20260903135203 92 110 1.0 4.0 0.00 0.00 0.00 42 1011.6
20260903134803 93 42 2.0 4.0 0.00 0.00 0.00 44 1011.7
20260903134616 94 11 2.0 4.0 0.00 0.00 0.00 42 1011.7
20260903134215 92 29 1.0 4.0 0.00 0.00 0.00 43 1011.5
20260903133603 91 89 1.0 6.0 0.00 0.00 0.00 45 1011.7
20260903133414 91 88 1.0 6.0 0.00 0.00 0.00 45 1011.9
20260903132803 92 99 2.0 4.0 0.00 0.00 0.00 45 1011.8
20260903132403 93 137 2.0 2.0 0.00 0.00 0.00 44 1011.7
20260903132003 93 140 2.0 4.0 0.00 0.00 0.00 43 1011.8